UAL540 KDEN-KSAN

Flight info

Callsign UAL540
Flight time N/A
Altitude 34000
Route BAYLR6 TEHRU PLNDL Q86 TTRUE LUCKI1
Aircraft B772/H-SDE2E3FGHIJ5LORVWXY/LB1D1

Departure

Time 2026-05-06 02:48
Airport Denver International Airport (KDEN)

Arrival

Time N/A
Airport San Diego International Airport (KSAN)
Time Latitude Longitude Altitude Speed Heading
2026-05-06 02:28 39.85802 -104.67196 5383 ft 0 kts
2026-05-06 02:38 39.85801 -104.67196 5382 ft 2 kts
2026-05-06 02:38 39.85776 -104.67196 5383 ft 4 kts
2026-05-06 02:39 39.85749 -104.67196 5384 ft 4 kts
2026-05-06 02:39 39.85722 -104.67196 5384 ft 4 kts
2026-05-06 02:39 39.85712 -104.67196 5387 ft 0 kts
2026-05-06 02:42 39.85714 -104.67238 5389 ft 7 kts 241°
2026-05-06 02:42 39.85680 -104.67294 5384 ft 12 kts 231°
2026-05-06 02:42 39.85615 -104.67403 5385 ft 16 kts 239°
2026-05-06 02:43 39.85592 -104.67538 5386 ft 16 kts 269°
2026-05-06 02:43 39.85592 -104.67679 5391 ft 16 kts 270°
2026-05-06 02:43 39.85592 -104.67820 5391 ft 16 kts 269°
2026-05-06 02:43 39.85593 -104.67960 5391 ft 16 kts 270°
2026-05-06 02:44 39.85594 -104.68101 5391 ft 16 kts 270°
2026-05-06 02:44 39.85596 -104.68240 5387 ft 16 kts 271°
2026-05-06 02:44 39.85597 -104.68331 5385 ft 3 kts 270°
2026-05-06 02:44 39.85551 -104.68401 5375 ft 17 kts 192°
2026-05-06 02:45 39.85435 -104.68402 5375 ft 17 kts 181°
2026-05-06 02:45 39.85318 -104.68403 5377 ft 17 kts 180°
2026-05-06 02:45 39.85214 -104.68447 5376 ft 17 kts 244°
2026-05-06 02:45 39.85204 -104.68614 5369 ft 19 kts 267°
2026-05-06 02:46 39.85200 -104.68787 5362 ft 20 kts 270°
2026-05-06 02:46 39.85198 -104.68970 5358 ft 21 kts 268°
2026-05-06 02:46 39.85197 -104.69165 5354 ft 22 kts 270°
2026-05-06 02:46 39.85199 -104.69366 5347 ft 22 kts 271°
2026-05-06 02:47 39.85199 -104.69565 5341 ft 19 kts 270°
2026-05-06 02:47 39.85282 -104.69658 5341 ft 10 kts 360°
2026-05-06 02:47 39.85409 -104.69660 5342 ft 35 kts 359°
2026-05-06 02:47 39.85859 -104.69653 5346 ft 96 kts
2026-05-06 02:48 39.86736 -104.69644 5342 ft 153 kts
2026-05-06 02:48 39.87894 -104.69641 5756 ft 170 kts 359°
2026-05-06 02:48 39.89119 -104.69640 6502 ft 182 kts
2026-05-06 02:48 39.90400 -104.69759 7112 ft 192 kts 343°
2026-05-06 02:49 39.91459 -104.70922 7196 ft 213 kts 296°
2026-05-06 02:49 39.91631 -104.72870 7348 ft 228 kts 255°
2026-05-06 02:49 39.90856 -104.74672 7452 ft 242 kts 225°
2026-05-06 02:49 39.89580 -104.76235 7609 ft 261 kts 219°
2026-05-06 02:50 39.88159 -104.77835 7939 ft 276 kts 219°
2026-05-06 02:50 39.86704 -104.79490 8626 ft 280 kts 220°
2026-05-06 02:50 39.85241 -104.81181 9381 ft 281 kts 220°
2026-05-06 02:50 39.83811 -104.82869 10084 ft 282 kts 220°
2026-05-06 02:51 39.82335 -104.84631 10454 ft 298 kts 221°
2026-05-06 02:51 39.80762 -104.86518 10727 ft 317 kts 223°
2026-05-06 02:51 39.79125 -104.88484 11502 ft 323 kts 224°
2026-05-06 02:51 39.77637 -104.90633 12235 ft 323 kts 240°
2026-05-06 02:52 39.76852 -104.93352 13170 ft 320 kts 256°
2026-05-06 02:52 39.76276 -104.96163 14023 ft 326 kts 256°
2026-05-06 02:52 39.75660 -104.98985 15039 ft 324 kts 256°
2026-05-06 02:52 39.75035 -105.01811 16068 ft 325 kts 255°
2026-05-06 02:53 39.74319 -105.04613 16969 ft 328 kts 250°
2026-05-06 02:53 39.73424 -105.07362 17860 ft 332 kts 248°
2026-05-06 02:53 39.72482 -105.10110 18671 ft 335 kts 248°
2026-05-06 02:53 39.71530 -105.12903 19339 ft 341 kts 248°
2026-05-06 02:54 39.70576 -105.15742 20036 ft 345 kts 249°
2026-05-06 02:54 39.69632 -105.18591 20720 ft 350 kts 249°
2026-05-06 02:54 39.68667 -105.21522 21414 ft 354 kts 249°
2026-05-06 02:54 39.67697 -105.24476 22108 ft 358 kts 249°
2026-05-06 02:55 39.66709 -105.27481 22809 ft 363 kts 249°
2026-05-06 02:55 39.65710 -105.30516 23458 ft 369 kts 249°
2026-05-06 02:55 39.64691 -105.33609 24056 ft 374 kts 249°
2026-05-06 02:55 39.63660 -105.36727 24648 ft 377 kts 248°
2026-05-06 02:56 39.62622 -105.39872 25294 ft 380 kts 249°
2026-05-06 02:56 39.61575 -105.43048 25907 ft 385 kts 248°
2026-05-06 02:56 39.60532 -105.46210 26479 ft 388 kts 248°
2026-05-06 02:56 39.59461 -105.49448 27075 ft 392 kts 248°